When you browse on this site, cookies collect data to enhance your experience and personalize the content and advertising you see.
Visit our Privacy Policy to learn more. By continuing to use the site, you agree to this use of cookies and data.
  • In Latvia
  • List of Countries
  • For 7 days
  • Water Temperature
  • Weather Map
  • Weather Widgets
  • user-avatar
    Login

    Hourly Weather Rochester

    Today, 18 October, Friday

    Time Temperature Precipitation Wind Pressure Humidity
    00:00 +5°C° 0.1 mm 7 mps 741 mmHg 82%
    01:00 +5°C° 0.1 mm 7 mps 741 mmHg 83%
    02:00 +5°C° 0 mm 7 mps 741 mmHg 82%
    03:00 +5°C° 0 mm 7 mps 742 mmHg 81%
    04:00 +5°C° 0 mm 6 mps 742 mmHg 79%
    05:00 +5°C° 0 mm 6 mps 743 mmHg 78%
    06:00 +5°C° 0 mm 6 mps 744 mmHg 77%
    07:00 +5°C° 0 mm 6 mps 745 mmHg 76%
    08:00 +5°C° 0 mm 7 mps 745 mmHg 73%
    09:00 +5°C° 0 mm 7 mps 745 mmHg 70%
    10:00 +6°C° 0 mm 7 mps 746 mmHg 67%
    11:00 +6°C° 0 mm 7 mps 746 mmHg 65%
    12:00 +7°C° 0 mm 6 mps 746 mmHg 64%
    13:00 +8°C° 0 mm 6 mps 746 mmHg 62%
    14:00 +8°C° 0 mm 5 mps 746 mmHg 62%
    15:00 +8°C° 0 mm 5 mps 746 mmHg 62%
    16:00 +8°C° 0 mm 5 mps 746 mmHg 62%
    17:00 +6°C° 0 mm 4 mps 746 mmHg 69%
    18:00 +5°C° 0 mm 4 mps 747 mmHg 75%
    19:00 +3°C° 0 mm 3 mps 747 mmHg 81%
    20:00 +3°C° 0 mm 3 mps 748 mmHg 83%
    21:00 +3°C° 0 mm 3 mps 748 mmHg 84%
    22:00 +3°C° 0 mm 2 mps 748 mmHg 86%
    23:00 +3°C° 0 mm 2 mps 748 mmHg 87%

    Tomorrow, 19 October, Saturday

    Time Temperature Precipitation Wind Pressure Humidity
    00:00 +3°C° 0 mm 2 mps 748 mmHg 89%
    01:00 +3°C° 0 mm 2 mps 748 mmHg 90%
    02:00 +2°C° 0 mm 2 mps 748 mmHg 90%
    03:00 +2°C° 0 mm 2 mps 748 mmHg 91%
    04:00 +2°C° 0 mm 2 mps 748 mmHg 92%
    05:00 +2°C° 0 mm 2 mps 748 mmHg 92%
    06:00 +2°C° 0 mm 2 mps 748 mmHg 91%
    07:00 +2°C° 0 mm 2 mps 748 mmHg 91%
    08:00 +6°C° 0 mm 1 mps 748 mmHg 82%
    09:00 +8°C° 0 mm 1 mps 748 mmHg 73%
    10:00 +11°C° 0 mm 1 mps 748 mmHg 64%
    11:00 +12°C° 0 mm 1 mps 748 mmHg 59%
    12:00 +13°C° 0 mm 1 mps 747 mmHg 55%
    13:00 +14°C° 0 mm 2 mps 746 mmHg 50%
    14:00 +14°C° 0 mm 2 mps 746 mmHg 53%
    15:00 +13°C° 0 mm 3 mps 745 mmHg 56%
    16:00 +13°C° 0 mm 3 mps 745 mmHg 59%
    17:00 +11°C° 0 mm 3 mps 745 mmHg 67%
    18:00 +9°C° 0 mm 3 mps 745 mmHg 75%
    19:00 +7°C° 0 mm 3 mps 746 mmHg 83%
    20:00 +5°C° 0 mm 3 mps 746 mmHg 83%
    21:00 +5°C° 0 mm 3 mps 745 mmHg 83%
    22:00 +5°C° 0 mm 3 mps 745 mmHg 83%
    23:00 +5°C° 0 mm 3 mps 745 mmHg 85%

    Day after tomorrow, 20 October, Sunday

    Time Temperature Precipitation Wind Pressure Humidity
    00:00 +5°C° 0 mm 3 mps 745 mmHg 86%
    01:00 +4°C° 0 mm 3 mps 745 mmHg 87%
    02:00 +6°C° 0 mm 2 mps 745 mmHg 88%
    03:00 +6°C° 0 mm 2 mps 745 mmHg 89%
    04:00 +6°C° 0 mm 2 mps 745 mmHg 90%
    05:00 +6°C° 0 mm 2 mps 745 mmHg 90%
    06:00 +6°C° 0 mm 2 mps 745 mmHg 90%
    07:00 +6°C° 0 mm 2 mps 745 mmHg 90%
    08:00 +8°C° 0 mm 2 mps 745 mmHg 81%
    09:00 +12°C° 0 mm 1 mps 745 mmHg 72%
    10:00 +15°C° 0 mm 1 mps 745 mmHg 62%
    11:00 +16°C° 0 mm 1 mps 745 mmHg 59%
    12:00 +18°C° 0 mm 1 mps 745 mmHg 56%
    13:00 +19°C° 0 mm 1 mps 745 mmHg 53%
    14:00 +17°C° 0 mm 2 mps 745 mmHg 58%
    15:00 +17°C° 0 mm 2 mps 745 mmHg 62%
    16:00 +16°C° 0 mm 2 mps 745 mmHg 66%
    17:00 +14°C° 0 mm 2 mps 746 mmHg 74%
    18:00 +12°C° 0 mm 1 mps 746 mmHg 81%
    19:00 +8°C° 0 mm 0 mps 747 mmHg 88%
    20:00 +9°C° 0 mm 1 mps 747 mmHg 89%
    21:00 +9°C° 0 mm 1 mps 747 mmHg 89%
    22:00 +9°C° 0 mm 1 mps 747 mmHg 89%
    23:00 +9°C° 0 mm 1 mps 747 mmHg 89%

    21 October, Monday

    Time Temperature Precipitation Wind Pressure Humidity
    00:00 +9°C° 0 mm 1 mps 748 mmHg 89%
    01:00 +8°C° 0 mm 1 mps 748 mmHg 89%
    02:00 +8°C° 0 mm 1 mps 748 mmHg 90%
    03:00 +8°C° 0 mm 1 mps 748 mmHg 90%
    04:00 +7°C° 0 mm 2 mps 748 mmHg 91%
    05:00 +7°C° 0 mm 2 mps 748 mmHg 92%
    06:00 +7°C° 0 mm 2 mps 748 mmHg 92%
    07:00 +7°C° 0 mm 2 mps 748 mmHg 93%
    08:00 +10°C° 0 mm 3 mps 748 mmHg 84%
    09:00 +13°C° 0 mm 3 mps 748 mmHg 76%
    10:00 +16°C° 0 mm 3 mps 748 mmHg 67%
    11:00 +18°C° 0 mm 4 mps 747 mmHg 64%
    12:00 +19°C° 0 mm 4 mps 747 mmHg 60%
    13:00 +20°C° 0 mm 5 mps 746 mmHg 57%
    14:00 +20°C° 0 mm 5 mps 746 mmHg 59%
    15:00 +19°C° 0 mm 5 mps 745 mmHg 61%
    16:00 +19°C° 0 mm 5 mps 745 mmHg 63%
    17:00 +17°C° 0 mm 5 mps 745 mmHg 66%
    18:00 +16°C° 0 mm 5 mps 744 mmHg 69%
    19:00 +14°C° 0 mm 5 mps 744 mmHg 71%
    20:00 +14°C° 0 mm 6 mps 744 mmHg 68%
    21:00 +14°C° 0 mm 7 mps 744 mmHg 65%
    22:00 +13°C° 0 mm 8 mps 743 mmHg 63%
    23:00 +13°C° 0 mm 8 mps 743 mmHg 64%

    22 October, Tuesday

    Time Temperature Precipitation Wind Pressure Humidity
    00:00 +13°C° 0 mm 9 mps 742 mmHg 65%
    01:00 +13°C° 0 mm 9 mps 741 mmHg 66%
    02:00 +15°C° 0.3 mm 9 mps 741 mmHg 68%
    03:00 +15°C° 0.3 mm 8 mps 740 mmHg 71%
    04:00 +15°C° 0.3 mm 7 mps 740 mmHg 73%
    05:00 +15°C° 0.7 mm 8 mps 739 mmHg 77%
    06:00 +15°C° 0.7 mm 8 mps 739 mmHg 82%
    07:00 +13°C° 0.7 mm 8 mps 738 mmHg 86%
    08:00 +14°C° 1.9 mm 7 mps 738 mmHg 88%
    09:00 +14°C° 1.9 mm 5 mps 738 mmHg 90%
    10:00 +13°C° 1.9 mm 3 mps 738 mmHg 91%
    11:00 +13°C° 1.5 mm 3 mps 738 mmHg 88%
    12:00 +13°C° 1.5 mm 3 mps 738 mmHg 85%
    13:00 +13°C° 1.5 mm 4 mps 737 mmHg 82%
    14:00 +13°C° 0.1 mm 4 mps 737 mmHg 79%
    15:00 +12°C° 0.1 mm 5 mps 737 mmHg 75%
    16:00 +11°C° 0.1 mm 6 mps 737 mmHg 72%
    17:00 +10°C° 0 mm 6 mps 738 mmHg 73%
    18:00 +10°C° 0 mm 6 mps 738 mmHg 73%
    19:00 +9°C° 0 mm 6 mps 738 mmHg 73%
    20:00 +8°C° 0.1 mm 6 mps 738 mmHg 76%
    21:00 +8°C° 0.1 mm 6 mps 739 mmHg 79%
    22:00 +7°C° 0.1 mm 6 mps 739 mmHg 82%
    23:00 +7°C° 0.1 mm 6 mps 739 mmHg 82%

    23 October, Wednesday

    Time Temperature Precipitation Wind Pressure Humidity
    00:00 +5°C° 0.1 mm 6 mps 739 mmHg 83%
    01:00 +5°C° 0.1 mm 7 mps 738 mmHg 83%
    02:00 +4°C° 0 mm 6 mps 739 mmHg 83%
    03:00 +4°C° 0 mm 6 mps 739 mmHg 84%
    04:00 +3°C° 0 mm 6 mps 739 mmHg 84%
    05:00 +3°C° 0 mm 7 mps 740 mmHg 83%
    06:00 +3°C° 0 mm 7 mps 740 mmHg 82%
    07:00 +3°C° 0 mm 7 mps 741 mmHg 81%
    08:00 +5°C° 0 mm 8 mps 741 mmHg 74%
    09:00 +6°C° 0 mm 8 mps 742 mmHg 67%
    10:00 +7°C° 0 mm 9 mps 743 mmHg 61%
    11:00 +8°C° 0 mm 9 mps 743 mmHg 58%
    12:00 +10°C° 0 mm 8 mps 744 mmHg 56%
    13:00 +11°C° 0 mm 8 mps 744 mmHg 54%
    14:00 +11°C° 0 mm 7 mps 744 mmHg 54%
    15:00 +10°C° 0 mm 7 mps 745 mmHg 55%
    16:00 +10°C° 0 mm 6 mps 745 mmHg 56%
    17:00 +9°C° 0 mm 5 mps 745 mmHg 62%
    18:00 +8°C° 0 mm 5 mps 746 mmHg 68%
    19:00 +6°C° 0 mm 5 mps 746 mmHg 74%
    20:00 +6°C° 0 mm 4 mps 746 mmHg 70%
    21:00 +6°C° 0 mm 4 mps 746 mmHg 66%
    22:00 +7°C° 0 mm 4 mps 746 mmHg 63%
    23:00 +8°C° 0 mm 4 mps 746 mmHg 59%
    Show more